Time,TemperatureF,DewpointF,PressureIn,WindDirection,WindDirectionDegrees,WindSpeedMPH,WindSpeedGustMPH,Humidity,HourlyPrecipIn,Conditions,Clouds,dailyrainin,SoftwareType,DateUTC
2013-01-01 00:03:00,53.0,44.0,-100.00,SW,225,5.0,7.0,70,-99.99,,,-99.99,,2013-01-01 05:03:00,
2013-01-01 00:12:00,53.0,44.0,-100.00,SW,215,5.0,7.0,71,-99.99,,,-99.99,,2013-01-01 05:12:00,
2013-01-01 00:22:00,53.0,44.0,-100.00,SW,230,4.0,8.0,71,-99.99,,,-99.99,,2013-01-01 05:22:00,
2013-01-01 00:33:00,53.0,44.0,-100.00,SW,230,5.0,8.0,72,-99.99,,,-99.99,,2013-01-01 05:33:00,
2013-01-01 00:42:00,53.0,44.0,-100.00,SSW,210,5.0,8.0,73,-99.99,,,-99.99,,2013-01-01 05:42:00,
2013-01-01 00:52:00,53.0,45.0,-100.00,SSW,210,5.0,7.0,75,-99.99,,,-99.99,,2013-01-01 05:52:00,
2013-01-01 01:02:00,54.0,45.0,-100.00,SW,220,4.0,8.0,73,-99.99,,,-99.99,,2013-01-01 06:02:00,
2013-01-01 01:12:00,54.0,45.0,-100.00,SW,230,5.0,9.0,72,-99.99,,,-99.99,,2013-01-01 06:12:00,
2013-01-01 01:22:00,53.0,45.0,-100.00,SW,235,5.0,7.0,73,-99.99,,,-99.99,,2013-01-01 06:22:00,
2013-01-01 01:32:00,54.0,45.0,-100.00,SW,225,2.0,8.0,72,-99.99,,,-99.99,,2013-01-01 06:32:00,
2013-01-01 01:42:00,54.0,45.0,-100.00,WSW,240,5.0,9.0,72,-99.99,,,-99.99,,2013-01-01 06:42:00,
2013-01-01 01:52:00,54.0,45.0,-100.00,WSW,250,1.0,8.0,72,-99.99,,,-99.99,,2013-01-01 06:52:00,
2013-01-01 02:02:00,54.0,45.0,-100.00,SW,235,3.0,11.0,73,-99.99,,,-99.99,,2013-01-01 07:02:00,
2013-01-01 02:12:00,54.0,46.0,-100.00,WSW,240,3.0,12.0,75,-99.99,,,-99.99,,2013-01-01 07:12:00,
2013-01-01 02:22:00,54.0,46.0,-100.00,WSW,250,2.0,13.0,75,-99.99,,,-99.99,,2013-01-01 07:22:00,
2013-01-01 02:32:00,53.0,46.0,-100.00,WSW,255,2.0,10.0,75,-99.99,,,-99.99,,2013-01-01 07:32:00,
2013-01-01 02:42:00,54.0,46.0,-100.00,WSW,240,2.0,16.0,74,-99.99,,,-99.99,,2013-01-01 07:42:00,
2013-01-01 02:52:00,54.0,45.0,-100.00,SW,230,2.0,14.0,73,-99.99,,,-99.99,,2013-01-01 07:52:00,
2013-01-01 03:02:00,54.0,45.0,-100.00,WSW,255,5.0,16.0,71,-99.99,,,-99.99,,2013-01-01 08:02:00,
2013-01-01 03:12:00,54.0,45.0,-100.00,WSW,245,2.0,16.0,71,-99.99,,,-99.99,,2013-01-01 08:12:00,
2013-01-01 03:22:00,54.0,45.0,-100.00,WSW,250,7.0,18.0,71,-99.99,,,-99.99,,2013-01-01 08:22:00,
2013-01-01 03:32:00,54.0,45.0,-100.00,SW,225,5.0,18.0,72,-99.99,,,-99.99,,2013-01-01 08:32:00,
2013-01-01 03:42:00,54.0,45.0,-100.00,SW,225,1.0,17.0,72,-99.99,,,-99.99,,2013-01-01 08:42:00,
2013-01-01 03:53:00,55.0,45.0,-100.00,WSW,250,12.0,16.0,70,-99.99,,,-99.99,,2013-01-01 08:53:00,
2013-01-01 04:02:00,56.0,45.0,-100.00,WSW,240,5.0,19.0,68,-99.99,,,-99.99,,2013-01-01 09:02:00,
2013-01-01 04:12:00,55.0,45.0,-100.00,WSW,245,8.0,20.0,69,-99.99,,,-99.99,,2013-01-01 09:12:00,
2013-01-01 04:22:00,55.0,45.0,-100.00,WSW,245,3.0,17.0,70,-99.99,,,-99.99,,2013-01-01 09:22:00,
2013-01-01 04:32:00,54.0,45.0,-100.00,SW,230,3.0,16.0,72,-99.99,,,-99.99,,2013-01-01 09:32:00,
2013-01-01 04:42:00,53.0,45.0,-100.00,SW,225,2.0,17.0,74,-99.99,,,-99.99,,2013-01-01 09:42:00,
2013-01-01 04:52:00,54.0,46.0,-100.00,SW,220,4.0,16.0,74,-99.99,,,-99.99,,2013-01-01 09:52:00,
2013-01-01 05:02:00,54.0,45.0,-100.00,SW,220,7.0,16.0,73,-99.99,,,-99.99,,2013-01-01 10:02:00,
2013-01-01 05:12:00,54.0,45.0,-100.00,SW,225,9.0,19.0,72,-99.99,,,-99.99,,2013-01-01 10:12:00,
2013-01-01 05:22:00,54.0,45.0,-100.00,SW,220,6.0,15.0,73,-99.99,,,-99.99,,2013-01-01 10:22:00,
2013-01-01 05:33:00,53.0,46.0,-100.00,SW,220,4.0,13.0,75,-99.99,,,-99.99,,2013-01-01 10:33:00,
2013-01-01 05:42:00,54.0,46.0,-100.00,WSW,250,0.0,14.0,75,-99.99,,,-99.99,,2013-01-01 10:42:00,
2013-01-01 05:52:00,54.0,46.0,-100.00,WSW,255,6.0,16.0,74,-99.99,,,-99.99,,2013-01-01 10:52:00,
2013-01-01 06:02:00,54.0,46.0,-100.00,WSW,255,5.0,19.0,73,-99.99,,,-99.99,,2013-01-01 11:02:00,
2013-01-01 06:12:00,54.0,46.0,-100.00,West,265,16.0,18.0,75,-99.99,,,-99.99,,2013-01-01 11:12:00,
2013-01-01 06:23:00,54.0,46.0,-100.00,WSW,255,0.0,17.0,75,-99.99,,,-99.99,,2013-01-01 11:23:00,
2013-01-01 06:33:00,53.0,46.0,-100.00,WSW,255,0.0,2.0,76,-99.99,,,-99.99,,2013-01-01 11:33:00,
2013-01-01 06:43:00,54.0,46.0,-100.00,West,260,16.0,19.0,76,-99.99,,,-99.99,,2013-01-01 11:43:00,
2013-01-01 06:53:00,54.0,46.0,-100.00,WSW,250,8.0,18.0,75,-99.99,,,-99.99,,2013-01-01 11:53:00,
2013-01-01 07:03:00,54.0,46.0,-100.00,West,260,10.0,19.0,74,-99.99,,,-99.99,,2013-01-01 12:03:00,
2013-01-01 07:12:00,53.0,46.0,-100.00,WSW,245,1.0,16.0,76,-99.99,,,-99.99,,2013-01-01 12:12:00,
2013-01-01 07:22:00,54.0,46.0,-100.00,WSW,245,5.0,17.0,75,-99.99,,,-99.99,,2013-01-01 12:22:00,
2013-01-01 07:33:00,54.0,46.0,-100.00,WSW,255,16.0,19.0,75,-99.99,,,-99.99,,2013-01-01 12:33:00,
2013-01-01 07:43:00,54.0,47.0,-100.00,WSW,250,14.0,21.0,75,-99.99,,,-99.99,,2013-01-01 12:43:00,
2013-01-01 07:52:00,55.0,47.0,-100.00,WSW,245,13.0,19.0,75,-99.99,,,-99.99,,2013-01-01 12:52:00,
2013-01-01 08:03:00,54.0,47.0,-100.00,WSW,240,7.0,20.0,76,-99.99,,,-99.99,,2013-01-01 13:03:00,
2013-01-01 08:12:00,54.0,47.0,-100.00,WSW,245,1.0,17.0,77,-99.99,,,-99.99,,2013-01-01 13:12:00,
2013-01-01 08:22:00,54.0,47.0,-100.00,WSW,245,0.0,13.0,78,-99.99,,,-99.99,,2013-01-01 13:22:00,
2013-01-01 08:33:00,54.0,48.0,-100.00,West,260,10.0,18.0,78,-99.99,,,-99.99,,2013-01-01 13:33:00,
2013-01-01 08:43:00,54.0,48.0,-100.00,West,270,0.0,18.0,78,-99.99,,,-99.99,,2013-01-01 13:43:00,
2013-01-01 08:52:00,55.0,48.0,-100.00,West,265,1.0,13.0,77,-99.99,,,-99.99,,2013-01-01 13:52:00,
2013-01-01 09:02:00,55.0,48.0,-100.00,WSW,255,1.0,20.0,76,-99.99,,,-99.99,,2013-01-01 14:02:00,
2013-01-01 09:12:00,56.0,48.0,-100.00,WSW,250,1.0,9.0,75,-99.99,,,-99.99,,2013-01-01 14:12:00,
2013-01-01 09:22:00,56.0,48.0,-100.00,WSW,245,1.0,13.0,75,-99.99,,,-99.99,,2013-01-01 14:22:00,
2013-01-01 09:32:00,56.0,48.0,-100.00,WSW,255,2.0,6.0,75,-99.99,,,-99.99,,2013-01-01 14:32:00,
2013-01-01 09:42:00,56.0,48.0,-100.00,WSW,250,1.0,6.0,74,-99.99,,,-99.99,,2013-01-01 14:42:00,
2013-01-01 09:53:00,56.0,48.0,-100.00,WSW,250,2.0,6.0,73,-99.99,,,-99.99,,2013-01-01 14:53:00,
2013-01-01 10:03:00,57.0,48.0,-100.00,WSW,240,2.0,6.0,73,-99.99,,,-99.99,,2013-01-01 15:03:00,
2013-01-01 10:12:00,57.0,48.0,-100.00,SW,220,1.0,6.0,72,-99.99,,,-99.99,,2013-01-01 15:12:00,
2013-01-01 10:22:00,57.0,48.0,-100.00,SW,220,3.0,6.0,72,-99.99,,,-99.99,,2013-01-01 15:22:00,
2013-01-01 10:33:00,57.0,48.0,-100.00,SW,230,4.0,6.0,72,-99.99,,,-99.99,,2013-01-01 15:33:00,
2013-01-01 10:43:00,57.0,48.0,-100.00,SW,220,4.0,6.0,72,-99.99,,,-99.99,,2013-01-01 15:43:00,
2013-01-01 10:53:00,58.0,49.0,-100.00,SSW,200,2.0,6.0,72,-99.99,,,-99.99,,2013-01-01 15:53:00,
2013-01-01 11:02:00,58.0,49.0,-100.00,SSW,210,4.0,6.0,71,-99.99,,,-99.99,,2013-01-01 16:02:00,
2013-01-01 11:12:00,58.0,49.0,-100.00,South,180,2.0,6.0,72,-99.99,,,-99.99,,2013-01-01 16:12:00,
2013-01-01 11:22:00,58.0,49.0,-100.00,South,180,2.0,6.0,72,-99.99,,,-99.99,,2013-01-01 16:22:00,
2013-01-01 11:33:00,59.0,49.0,-100.00,SSW,200,2.0,7.0,71,-99.99,,,-99.99,,2013-01-01 16:33:00,
2013-01-01 11:43:00,59.0,49.0,-100.00,SSW,210,3.0,11.0,70,-99.99,,,-99.99,,2013-01-01 16:43:00,
2013-01-01 11:53:00,59.0,50.0,-100.00,SSW,210,1.0,7.0,70,-99.99,,,-99.99,,2013-01-01 16:53:00,
2013-01-01 12:02:00,59.0,49.0,-100.00,SW,220,3.0,13.0,70,-99.99,,,-99.99,,2013-01-01 17:02:00,
2013-01-01 12:12:00,59.0,50.0,-100.00,SW,215,2.0,7.0,71,-99.99,,,-99.99,,2013-01-01 17:12:00,
2013-01-01 12:23:00,59.0,50.0,-100.00,SW,220,3.0,11.0,71,-99.99,,,-99.99,,2013-01-01 17:23:00,
2013-01-01 12:33:00,59.0,50.0,-100.00,SW,225,3.0,12.0,72,-99.99,,,-99.99,,2013-01-01 17:33:00,
2013-01-01 12:43:00,60.0,51.0,-100.00,SW,225,1.0,6.0,73,-99.99,,,-99.99,,2013-01-01 17:43:00,
2013-01-01 12:53:00,60.0,51.0,-100.00,SW,225,4.0,7.0,73,-99.99,,,-99.99,,2013-01-01 17:53:00,
2013-01-01 13:03:00,60.0,52.0,-100.00,SW,235,3.0,6.0,73,-99.99,,,-99.99,,2013-01-01 18:03:00,
2013-01-01 13:13:00,61.0,52.0,-100.00,West,260,2.0,7.0,72,-99.99,,,-99.99,,2013-01-01 18:13:00,
2013-01-01 13:23:00,61.0,52.0,-100.00,West,260,2.0,7.0,72,-99.99,,,-99.99,,2013-01-01 18:23:00,
2013-01-01 13:33:00,62.0,52.0,-100.00,WSW,240,4.0,8.0,71,-99.99,,,-99.99,,2013-01-01 18:33:00,
2013-01-01 13:43:00,62.0,52.0,-100.00,SW,235,3.0,7.0,70,-99.99,,,-99.99,,2013-01-01 18:43:00,
2013-01-01 13:52:00,62.0,52.0,-100.00,WSW,240,4.0,8.0,70,-99.99,,,-99.99,,2013-01-01 18:52:00,
2013-01-01 14:02:00,62.0,52.0,-100.00,SW,215,4.0,7.0,69,-99.99,,,-99.99,,2013-01-01 19:02:00,
2013-01-01 14:12:00,63.0,52.0,-100.00,SW,225,4.0,7.0,69,-99.99,,,-99.99,,2013-01-01 19:12:00,
2013-01-01 14:22:00,63.0,52.0,-100.00,SW,235,4.0,7.0,68,-99.99,,,-99.99,,2013-01-01 19:22:00,
2013-01-01 14:33:00,63.0,52.0,-100.00,SW,215,4.0,9.0,67,-99.99,,,-99.99,,2013-01-01 19:33:00,
2013-01-01 14:43:00,63.0,52.0,-100.00,SW,220,4.0,7.0,66,-99.99,,,-99.99,,2013-01-01 19:43:00,
2013-01-01 14:52:00,64.0,52.0,-100.00,SW,225,4.0,8.0,66,-99.99,,,-99.99,,2013-01-01 19:52:00,
2013-01-01 15:02:00,64.0,52.0,-100.00,SW,220,2.0,8.0,65,-99.99,,,-99.99,,2013-01-01 20:02:00,
2013-01-01 15:13:00,64.0,52.0,-100.00,SSW,205,4.0,7.0,65,-99.99,,,-99.99,,2013-01-01 20:13:00,
2013-01-01 15:23:00,64.0,52.0,-100.00,SSW,200,4.0,14.0,65,-99.99,,,-99.99,,2013-01-01 20:23:00,
2013-01-01 15:32:00,65.0,52.0,-100.00,SW,220,2.0,7.0,64,-99.99,,,-99.99,,2013-01-01 20:32:00,
2013-01-01 15:42:00,65.0,52.0,-100.00,SSW,210,3.0,7.0,64,-99.99,,,-99.99,,2013-01-01 20:42:00,
2013-01-01 15:52:00,65.0,52.0,-100.00,SW,215,4.0,7.0,64,-99.99,,,-99.99,,2013-01-01 20:52:00,
2013-01-01 16:03:00,65.0,52.0,-100.00,SW,225,1.0,7.0,64,-99.99,,,-99.99,,2013-01-01 21:03:00,
2013-01-01 16:13:00,65.0,52.0,-100.00,SSW,200,4.0,9.0,64,-99.99,,,-99.99,,2013-01-01 21:13:00,
2013-01-01 16:22:00,64.0,52.0,-100.00,SW,225,1.0,7.0,65,-99.99,,,-99.99,,2013-01-01 21:22:00,
2013-01-01 16:33:00,64.0,52.0,-100.00,SW,215,2.0,10.0,66,-99.99,,,-99.99,,2013-01-01 21:33:00,
2013-01-01 16:42:00,63.0,52.0,-100.00,SW,215,2.0,14.0,68,-99.99,,,-99.99,,2013-01-01 21:42:00,
2013-01-01 16:52:00,63.0,52.0,-100.00,SW,235,1.0,14.0,68,-99.99,,,-99.99,,2013-01-01 21:52:00,
2013-01-01 17:03:00,62.0,52.0,-100.00,SSW,210,3.0,15.0,70,-99.99,,,-99.99,,2013-01-01 22:03:00,
2013-01-01 17:12:00,62.0,52.0,-100.00,SSW,210,7.0,19.0,71,-99.99,,,-99.99,,2013-01-01 22:12:00,
2013-01-01 17:22:00,61.0,52.0,-100.00,SW,215,2.0,18.0,73,-99.99,,,-99.99,,2013-01-01 22:22:00,
2013-01-01 17:33:00,60.0,52.0,-100.00,SW,215,2.0,16.0,74,-99.99,,,-99.99,,2013-01-01 22:33:00,
2013-01-01 17:43:00,60.0,52.0,-100.00,SW,220,1.0,19.0,75,-99.99,,,-99.99,,2013-01-01 22:43:00,
2013-01-01 17:52:00,60.0,52.0,-100.00,SW,215,1.0,13.0,75,-99.99,,,-99.99,,2013-01-01 22:52:00,
2013-01-01 18:03:00,60.0,53.0,-100.00,SW,225,1.0,14.0,76,-99.99,,,-99.99,,2013-01-01 23:03:00,
2013-01-01 18:12:00,60.0,53.0,-100.00,SW,215,3.0,7.0,77,-99.99,,,-99.99,,2013-01-01 23:12:00,
2013-01-01 18:22:00,60.0,53.0,-100.00,SW,220,1.0,10.0,79,-99.99,,,-99.99,,2013-01-01 23:22:00,
2013-01-01 18:32:00,60.0,53.0,-100.00,SSW,210,1.0,14.0,80,-99.99,,,-99.99,,2013-01-01 23:32:00,
2013-01-01 18:42:00,60.0,53.0,-100.00,SW,220,1.0,17.0,80,-99.99,,,-99.99,,2013-01-01 23:42:00,
2013-01-01 18:52:00,59.0,54.0,-100.00,SW,215,1.0,14.0,81,-99.99,,,-99.99,,2013-01-01 23:52:00,
2013-01-01 19:03:00,59.0,54.0,-100.00,SW,230,3.0,15.0,81,-99.99,,,-99.99,,2013-01-02 00:03:00,
2013-01-01 19:12:00,60.0,54.0,-100.00,SW,235,2.0,19.0,81,-99.99,,,-99.99,,2013-01-02 00:12:00,
2013-01-01 19:22:00,60.0,54.0,-100.00,SW,235,2.0,19.0,80,-99.99,,,-99.99,,2013-01-02 00:22:00,
2013-01-01 19:32:00,60.0,54.0,-100.00,SW,225,6.0,16.0,81,-99.99,,,-99.99,,2013-01-02 00:32:00,
2013-01-01 19:43:00,61.0,54.0,-100.00,SSW,210,5.0,21.0,79,-99.99,,,-99.99,,2013-01-02 00:43:00,
2013-01-01 19:52:00,61.0,54.0,-100.00,SW,225,7.0,17.0,77,-99.99,,,-99.99,,2013-01-02 00:52:00,
2013-01-01 20:02:00,62.0,54.0,-100.00,SW,215,7.0,19.0,76,-99.99,,,-99.99,,2013-01-02 01:02:00,
2013-01-01 20:12:00,62.0,54.0,-100.00,SW,230,4.0,18.0,77,-99.99,,,-99.99,,2013-01-02 01:12:00,
2013-01-01 20:22:00,62.0,54.0,-100.00,South,190,2.0,16.0,77,-99.99,,,-99.99,,2013-01-02 01:22:00,
2013-01-01 20:32:00,62.0,55.0,-100.00,SSW,205,1.0,14.0,77,-99.99,,,-99.99,,2013-01-02 01:32:00,
2013-01-01 20:42:00,62.0,55.0,-100.00,SSW,195,1.0,14.0,77,-99.99,,,-99.99,,2013-01-02 01:42:00,
2013-01-01 20:52:00,62.0,55.0,-100.00,SSW,210,2.0,14.0,78,-99.99,,,-99.99,,2013-01-02 01:52:00,
2013-01-01 21:02:00,62.0,55.0,-100.00,SSW,210,4.0,16.0,79,-99.99,,,-99.99,,2013-01-02 02:02:00,
2013-01-01 21:12:00,62.0,55.0,-100.00,SW,235,5.0,15.0,78,-99.99,,,-99.99,,2013-01-02 02:12:00,
2013-01-01 21:22:00,62.0,55.0,-100.00,SW,220,4.0,16.0,78,-99.99,,,-99.99,,2013-01-02 02:22:00,
2013-01-01 21:32:00,62.0,55.0,-100.00,South,185,6.0,17.0,77,-99.99,,,-99.99,,2013-01-02 02:32:00,
2013-01-01 21:42:00,62.0,55.0,-100.00,SSW,200,12.0,21.0,78,-99.99,,,-99.99,,2013-01-02 02:42:00,
2013-01-01 21:52:00,63.0,56.0,-100.00,SSW,205,4.0,23.0,78,-99.99,,,-99.99,,2013-01-02 02:52:00,
2013-01-01 22:02:00,63.0,56.0,-100.00,SW,215,4.0,15.0,78,-99.99,,,-99.99,,2013-01-02 03:02:00,
2013-01-01 22:12:00,63.0,55.0,-100.00,SSW,195,7.0,19.0,77,-99.99,,,-99.99,,2013-01-02 03:12:00,
2013-01-01 22:22:00,63.0,56.0,-100.00,South,190,4.0,18.0,78,-99.99,,,-99.99,,2013-01-02 03:22:00,
2013-01-01 22:32:00,63.0,56.0,-100.00,South,190,4.0,18.0,79,-99.99,,,-99.99,,2013-01-02 03:32:00,
2013-01-01 22:42:00,63.0,56.0,-100.00,SSW,205,5.0,19.0,79,-99.99,,,-99.99,,2013-01-02 03:42:00,
2013-01-01 22:52:00,63.0,57.0,-100.00,SSW,200,4.0,18.0,79,-99.99,,,-99.99,,2013-01-02 03:52:00,
2013-01-01 23:03:00,63.0,57.0,-100.00,SSW,205,2.0,14.0,80,-99.99,,,-99.99,,2013-01-02 04:03:00,
2013-01-01 23:12:00,63.0,58.0,-100.00,SSW,195,5.0,19.0,81,-99.99,,,-99.99,,2013-01-02 04:12:00,
2013-01-01 23:22:00,63.0,58.0,-100.00,SSW,205,6.0,21.0,82,-99.99,,,-99.99,,2013-01-02 04:22:00,
2013-01-01 23:32:00,63.0,58.0,-100.00,SSW,205,6.0,21.0,83,-99.99,,,-99.99,,2013-01-02 04:32:00,
2013-01-01 23:42:00,63.0,58.0,-100.00,SSW,195,4.0,22.0,83,-99.99,,,-99.99,,2013-01-02 04:42:00,
2013-01-01 23:52:00,63.0,58.0,-100.00,SSW,200,9.0,17.0,84,-99.99,,,-99.99,,2013-01-02 04:52:00,